sat.trackr.live / text

‹ back to catalog

STARLINK-3680

NORAD 51969 · 2022-025P

PAYLOAD ACTIVE UNKNOWN

§ Identity

Operator
Country
US
Launch date
2022-03-09
Launch site
AFETR
Launch vehicle
Mass (kg)
RCS (m²)

Purposes: comms

External: N2YO · Heavens-Above · Gunter

§ Orbital elements

Epoch: 2026-09-20T02:02:15.709920Z

Period
94.01 min
Inclination
53.1598°
Eccentricity
0.0001191
Mean motion
15.31693742 rev/d
Perigee alt
469.9 km
Apogee alt
471.6 km
Semi-major
6,848.9 km
B*
-1.9927e-6
RAAN
199.6446°
Arg perigee
93.8434°
Mean anomaly
266.2704°
Rev number
25,079

§ Raw data

STARLINK-36801 51969U 22025P   26263.08490405 -.00000427  00000+0 -19927-5 0  99972 51969  53.1598 199.6446 0001191  93.8434 266.2704 15.31693742250796

JSON: /api/v1/satellites/51969 · /tle

For live sub-satellite position, see the globe view (requires WebGL).

§ Visibility from observer

Set your observer location to see the next 7 days of passes ≥ 10°. The values pass through the URL so the page stays shareable.

No JS? Fill the form by hand. The geolocation button needs JavaScript.